Regional Weather Roundup
Issued by NWS

Home | Current Version | Previous Version | Graphics & Text | Print | Product List | Glossary On
Versions: 1 2 3 4 5 6 7 8 9 10 11 12 13 14 15 16 17 18 19 20 21 22 23 24 25 26 27 28 29 30 31 32 33 34 35 36 37 38 39 40 41 42 43 44 45 46 47 48 49 50
372
ASUS43 KBIS 020702
RWRND

NORTH DAKOTA REGIONAL WEATHER ROUNDUP
NATIONAL WEATHER SERVICE BISMARCK ND
200 AM CDT MON MAY 02 2016

NOTE: "FAIR" INDICATES FEW OR NO CLOUDS BELOW 12,000 FEET WITH NO
SIGNIFICANT WEATHER AND/OR OBSTRUCTIONS TO VISIBILITY.


NDZ001>003-009>011-017-020800-
NORTHWEST NORTH DAKOTA

CITY           SKY/WX    TMP DP  RH WIND       PRES   REMARKS
WILLISTON      MOCLDY    52  34  50 W16       30.09F
MINOT          CLOUDY    59  28  30 SW13      30.05F
MINOT AFB      PTCLDY    55  30  37 SW12G21   30.02F
$$

NDZ018>021-031>035-040>046-020800-
SOUTHWEST NORTH DAKOTA

CITY           SKY/WX    TMP DP  RH WIND       PRES   REMARKS
BISMARCK       PTCLDY    44  33  65 CALM      30.13F
DICKINSON      CLEAR     37  28  70 SW5       30.12F
GARRISON         N/A     47  32  56 W9        30.09F
HETTINGER ARPT CLEAR     35  28  75 CALM      30.17F
$$

NDZ004>008-012>016-024-026-027-054-020800-
NORTHEAST NORTH DAKOTA

CITY           SKY/WX    TMP DP  RH WIND       PRES   REMARKS
GRAND FORKS    CLOUDY    44  32  62 S6        30.08F
GRND FRKS AFB  MOCLDY    47  30  50 SW5       30.09F
DEVILS LAKE    CLOUDY    49  34  56 S6        30.09F
$$

NDZ022-023-025-028>030-036>039-047>053-020800-
SOUTHEAST NORTH DAKOTA

CITY           SKY/WX    TMP DP  RH WIND       PRES   REMARKS
FARGO          PTCLDY    43  30  60 W6        30.10F
JAMESTOWN      PTCLDY    46  32  58 SW6       30.10F
$$





USA.gov is the U.S. government's official web portal to all federal, state and local government web resources and services.